Regional Weather Roundup
Issued by NWS Upton, NY

Home | Current Version | Previous Version | Text Only | Print | Product List | Glossary On
Versions: 1 2 3 4 5 6 7 8 9 10 11 12 13 14 15 16 17 18 19 20 21 22 23 24 25 26 27 28 29 30 31 32 33 34 35 36 37 38 39 40 41 42 43 44 45 46 47 48
000
ASUS41 KOKX 021705
RWROKX

REGIONAL WEATHER ROUNDUP
NATIONAL WEATHER SERVICE NEW YORK NY
1200 PM EST MON MAR 02 2015

NOTE: "FAIR" INDICATES FEW OR NO CLOUDS BELOW 12,000 FEET WITH NO
SIGNIFICANT WEATHER AND/OR OBSTRUCTIONS TO VISIBILITY.

NYZ071-072-176-178-NJZ106-104-021800-
NEW YORK CITY METRO AREA


CITY           SKY/WX    TMP DP  RH WIND       PRES   REMARKS
CENTRAL PARK   SUNNY     36  13  38 W12G25    30.17F WCI  28
LAGUARDIA APRT MOSUNNY   35  15  44 NW25G33   30.15S WCI  23
KENNEDY INTL   MOSUNNY   35  16  45 NW26G39   30.16R WCI  22
NEWARK/LIBERTY MOSUNNY   36  17  46 W23G33    30.16F WCI  24
BRNX BOT. GARD   N/A    N/A N/A N/A W45       30.14S
TETERBORO      SUNNY     34  14  43 NW20G31   30.15F WCI  23
$$

NYZ177-179-078>081-021800-
LONG ISLAND NEW YORK

CITY           SKY/WX    TMP DP  RH WIND       PRES   REMARKS
FARMINGDALE    MOSUNNY   34  17  50 NW18G26   30.14R WCI  23
ISLIP          MOSUNNY   34  16  47 NW30G38   30.10R WCI  20
SHIRLEY        MOSUNNY   35  18  49 NW21G32   30.11S WCI  24
WESTHAMPTON    MOSUNNY   36  20  52 NW25G32   30.10R WCI  24
MONTAUK POINT    N/A     35  25  66 W16G25    30.07R WCI  25
$$

NYZ052-065-067-021800-
HUDSON VALLEY

CITY           SKY/WX    TMP DP  RH WIND       PRES   REMARKS
WHITE PLAINS   MOSUNNY   32  15  49 NW24G35   30.11R WCI  19
NEWBURGH       PTSUNNY   30  18  59 NW28G39   30.13R WCI  16
MONTGOMERY     PTSUNNY   33  15  47 NW15G29   30.12F HAZE    WCI  23
POUGHKEEPSIE   CLOUDY    32  13  45 W10G21    30.13R WCI  24
ALBANY         FLURRIES  28  16  60 W24       30.12R WCI  14
$$

NJZ001-105-106-008-010-013-015-019>022-104-021800-
NEW JERSEY

CITY           SKY/WX    TMP DP  RH WIND       PRES   REMARKS
NEWARK/LIBERTY MOSUNNY   36  17  46 W23G33    30.16F WCI  24
TETERBORO      SUNNY     34  14  43 NW20G31   30.15F WCI  23
CALDWELL       SUNNY     34  13  41 NW15G25   30.16F WCI  24
MORRISTOWN     PTSUNNY   36  12  38 NW18G29   30.18R WCI  25
SOMERVILLE     MOSUNNY   35  17  47 NW13G21   30.17R WCI  26
SUSSEX         MOSUNNY   33  12  41 NW12G26   30.15F WCI  24
ANDOVER          N/A     33  12  41 N12G22    30.16F WCI  24
TRENTON        PTSUNNY   36  20  52 N13G29    30.18S WCI  27
MILLVILLE      MOSUNNY   40  27  59 NW14G25   30.22R WCI  32
ATLANTIC CITY  MOSUNNY   39  27  62 NW21G30   30.19R WCI  29
WRIGHTSTOWN    MOSUNNY   37  22  54 NW13G23   30.16S WCI  29
TOMS RIVER     PTSUNNY   37  27  65 NW20G26   30.18S WCI  27
BELMAR         PTSUNNY   36  25  64 CALM      30.16S
$$

PAZ047>061-062-071-021800-
EASTERN PENNSYLVANIA

CITY           SKY/WX    TMP DP  RH WIND       PRES   REMARKS
PHILADELPHIA   MOSUNNY   38  20  48 NW17G29   30.23R WCI  28
ALLENTOWN      SUNNY     34  13  41 NW16G32   30.20S WCI  24
SCRANTON       MIX PCPN  31  12  45 NW13      30.18S WCI  21
$$

CTZ002-004>006-009-010-012-RIZ004-006-007-MAZ004-011-015-021800-
SOUTHERN NEW ENGLAND
 IN CT

CITY           SKY/WX    TMP DP  RH WIND       PRES   REMARKS
BRADLEY INTL   MOSUNNY   32  17  54 NW26G35   30.05S WCI  18
HARTFORD       MOSUNNY   33  16  49 NW13G25   30.08R WCI  24
DANBURY        PTSUNNY   32  11  41 NW12G22   30.12R WCI  23
WTRBRY/OXFORD  PTSUNNY   32  16  51 W9G18     30.06R WCI  24
BRIDGEPORT     MOSUNNY   35  18  49 W21G28    30.10S WCI  24
MERIDEN        LGT RAIN  34  17  50 W18G26    30.09R WCI  23
NEW HAVEN      CLOUDY    34  20  56 NW13G23   30.09R WCI  25
CHESTER        PTSUNNY   34  19  55 NW12G20   30.06R WCI  25
GROTON         MOSUNNY   35  17  47 NW21G26   30.05R WCI  24
WILLIMANTIC    LGT RAIN  33  15  47 NW16G28   30.05R WCI  23

 IN RI

CITY           SKY/WX    TMP DP  RH WIND       PRES   REMARKS
PROVIDENCE     MOSUNNY   35  17  47 W20G32    30.00R WCI  24
BLOCK ISLAND   PTSUNNY   36  23  60 NW18G26   30.01R WCI  25
WESTERLY       MOSUNNY   36  20  52 NW13G22   30.04R WCI  27

 IN MA

CITY           SKY/WX    TMP DP  RH WIND       PRES   REMARKS
BOSTON         PTSUNNY   35  18  49 W15G25    29.96R WCI  25
WORCESTER      PTSUNNY   29  13  51 NW21G33   29.94R WCI  16
WESTFIELD      LGT SNOW  31  13  47 NW26G43   30.04R WCI  17
PROVINCETOWN   MOSUNNY   34  21  60 NW22G31   29.94R WCI  22
NANTUCKET      CLOUDY    34  26  72 W21       29.94S WCI  22
$$

ANZ330-335-338-340-345-350-353-355-021800-
COASTAL MARINE OBSERVATIONS


STATION/POSITION TIME  SKY/WX   TEMP    WIND        PRES    VSBY  WAVE
                                AIR SEA DIR/SP/G                  HT/PER
                 (UTC)          (F)     (DEG/KT/KT) (MB)    (MI)  (FT/S)
NY HARB ENTRANCE 1700            35 38  320/ 19/ 25 1021.0          4/ 4
4S FIRE IS       NOT AVBL
20S FIRE ISLAND  1600               36              1019.9          5/ 4
23SW MTP         1700                                 N/A           4/ 9
HUDSON CANYON    NOT AVBL
EXECUTION ROCKS  NOT AVBL
WESTERN LI SOUND NOT AVBL
CENTRAL LI SOUND NOT AVBL
EASTERN LI SOUND NOT AVBL
ROBBINS REEF     1700            33     330/ 23/ 29 1020.0
$$


>>>>>>>>>>>>>>>>>>>>>>>>>>>> KEY <<<<<<<<<<<<<<<<<<<<<<<<<<<
>                                                          <
>     SKY/WX - SKY CONDITION/PRESENT WEATHER               <
>     TMP    - TEMPERATURE IN FAHRENHEIT                   <
>     DP     - DEWPOINT IN FAHRENHEIT                      <
>     RH     - RELATIVE HUMIDITY IN PERCENT                <
>     WIND   - DIRECTION AND SPEED IN MPH                  <
>     PRES   - MEAN SEA LEVEL PRESSURE IN INCHES OF HG     <
>     WCI    - WIND CHILL INDEX                            <
>     VSB    - VISIBILITY IN MILES                         <
>     HX     - HEAT INDEX                                  <
>     TC     - TEMPERATURE IN CELSIUS                      <
>     VRB    - VARIABLE WIND DIRECTION                     <
>                                                          <
>>>>>>>>>>>>>>>>>>>>>>>>>>>> KEY <<<<<<<<<<<<<<<<<<<<<<<<<<<





USA.gov is the U.S. government's official web portal to all federal, state and local government web resources and services.